Regional Weather Roundup
Issued by NWS

Home | Current Version | Previous Version | Text Only | Print | Product List | Glossary On
Versions: 1 2 3 4 5 6 7 8 9 10 11 12 13 14 15 16 17 18 19 20 21 22 23 24 25 26 27 28 29 30 31 32 33 34 35 36 37 38 39 40 41 42 43 44 45 46 47 48 49 50
748
ASUS43 KFSD 250610
RWRSD

WEATHER ROUNDUP FOR SOUTH DAKOTA
NATIONAL WEATHER SERVICE SIOUX FALLS SD
100 AM CDT THU AUG 25 2016

NOTE: "FAIR" INDICATES FEW OR NO CLOUDS BELOW 12,000 FEET WITH NO
SIGNIFICANT WEATHER AND/OR OBSTRUCTIONS TO VISIBILITY.


SDZ001>005-009-010-012>017-250700-
NORTHWEST AND NORTH CENTRAL SOUTH DAKOTA

CITY           SKY/WX    TMP DP  RH WIND       PRES   REMARKS
BUFFALO          N/A     50  43  77 NW12      30.16F
FAITH            N/A     54  45  71 W8        30.19R
MOBRIDGE       PTCLDY    62  46  55 NW12      30.09
$$

SDZ012>016-024>037-041>051-057-063-072>074-250700-
SOUTHWEST AND SOUTH CENTRAL SOUTH DAKOTA

CITY           SKY/WX    TMP DP  RH WIND       PRES   REMARKS
RAPID CTY ARPT MOCLDY    57  45  64 N10       30.24R
PIERRE         CLEAR     60  47  61 NW10      30.12R
CUSTER         LGT RAIN  52  43  71 W7        30.30S
ELLSWORTH AFB  MOCLDY    58  47  67 N12       30.24
PHILIP         MOCLDY    63  46  54 N13       30.17R
PINE RIDGE     CLOUDY    57  55  93 N6        30.22R
WINNER         FAIR      62  52  69 SW7       30.12S
$$

SDZ004>011-016>023-039-040-250700-
NORTHEAST SOUTH DAKOTA

CITY           SKY/WX    TMP DP  RH WIND       PRES   REMARKS
ABERDEEN       CLEAR     60  49  66 W9        30.07R
WATERTOWN      CLEAR     58  55  90 W8        30.05R
BROOKINGS      CLEAR     58  54  86 SW5       30.06S
SISSETON         N/A     54  52  93 CALM      30.01R
$$

SDZ017-020-022-023-036>040-048>070-250700-
SOUTHEAST SOUTH DAKOTA

CITY           SKY/WX    TMP DP  RH WIND       PRES   REMARKS
SIOUX FALLS    CLEAR     62  57  83 CALM      30.08R
HURON          CLEAR     60  53  77 W10       30.07R
CHAMBERLAIN    CLOUDY    61  55  80 W6        30.10S
MITCHELL       CLEAR     63  54  72 W7        30.08S
YANKTON        MOCLDY    61  52  72 S3        30.08S
$$

ABBREVIATIONS USED IN REMARKS
   TC - TEMPERATURE IN CELSIUS
  WCI - WIND CHILL INDEX
   HX - HEAT INDEX
  VSB - VISIBILITY





USA.gov is the U.S. government's official web portal to all federal, state and local government web resources and services.